Location: Costa Valle Imagna
(45.8000°N, 9.5000°E)
Time: 13:43:38
(UTC+00:00)

CZ-4C R/B - Pass Details

Date: 17 February 2020
Orbit: 642 x 1360 km, 63.4° (Epoch: 28 March)

Event Time Altitude Azimuth Distance (km) Brightness Sun altitude
Exits shadow 05:14:50 12° 304° (NW) 2,324 4.0 -12.4°
Maximum altitude 05:18:13 19° 344° (NNW) 2,042 4.0 -11.8°
Drops below altitude 10° 05:22:47 10° 28° (NNE) 2,820 5.2 -11.0°
Sets 05:26:33 0° 45° (NE) 3,926 6.3 -10.3°
